| time (UTC) | temp C | wind direction | speed KPH | gust KPH | rain 1hr cm | rain 24hr cm | rain mn cm | humidity % | barometer mb |
| 20260504230047 | 19 | 215 | 8.0 | 16.1 | 0.00 | 0.00 | 0.00 | 29 | 1005.3 |
| 20260504224546 | 19 | 246 | 8.0 | 14.5 | 0.00 | 0.00 | 0.00 | 30 | 1005.3 |
| 20260504223049 | 19 | 212 | 8.0 | 19.3 | 0.00 | 0.00 | 0.00 | 30 | 1005.2 |
| 20260504221547 | 19 | 269 | 12.9 | 27.4 | 0.00 | 0.00 | 0.00 | 28 | 1005.1 |
| 20260504220104 | 20 | 269 | 16.1 | 29.0 | 0.00 | 0.00 | 0.00 | 27 | 1005.1 |
| 20260504214547 | 20 | 282 | 12.9 | 25.7 | 0.00 | 0.00 | 0.00 | 27 | 1005.1 |
| 20260504213050 | 20 | 306 | 11.3 | 27.4 | 0.00 | 0.00 | 0.00 | 30 | 1005.0 |
| 20260504211541 | 20 | 271 | 16.1 | 30.6 | 0.00 | 0.00 | 0.00 | 27 | 1005.0 |
| 20260504210049 | 20 | 273 | 16.1 | 32.2 | 0.00 | 0.00 | 0.00 | 27 | 1004.9 |
| 20260504204557 | 20 | 281 | 9.7 | 25.7 | 0.00 | 0.00 | 0.00 | 31 | 1004.8 |
| 20260504203046 | 20 | 266 | 12.9 | 27.4 | 0.00 | 0.00 | 0.00 | 30 | 1004.7 |
| 20260504201551 | 19 | 256 | 14.5 | 33.8 | 0.00 | 0.00 | 0.00 | 29 | 1004.7 |
| 20260504200053 | 19 | 241 | 16.1 | 29.0 | 0.00 | 0.00 | 0.00 | 30 | 1004.7 |
| 20260504194549 | 20 | 306 | 12.9 | 29.0 | 0.00 | 0.00 | 0.00 | 31 | 1004.9 |
| 20260504193047 | 20 | 286 | 12.9 | 32.2 | 0.00 | 0.00 | 0.00 | 27 | 1004.9 |
| 20260504191545 | 20 | 268 | 8.0 | 30.6 | 0.00 | 0.00 | 0.00 | 36 | 1005.0 |
| 20260504190044 | 18 | 315 | 14.5 | 30.6 | 0.00 | 0.00 | 0.00 | 31 | 1005.1 |
| 20260504184540 | 18 | 281 | 17.7 | 33.8 | 0.00 | 0.00 | 0.00 | 30 | 1005.1 |
| 20260504183040 | 19 | 279 | 16.1 | 41.8 | 0.00 | 0.00 | 0.00 | 29 | 1005.1 |
| 20260504181552 | 19 | 252 | 20.9 | 41.8 | 0.00 | 0.00 | 0.00 | 27 | 1005.0 |
| 20260504180050 | 20 | 239 | 12.9 | 38.6 | 0.00 | 0.00 | 0.00 | 30 | 1004.9 |
| 20260504174546 | 18 | 263 | 19.3 | 40.2 | 0.00 | 0.00 | 0.00 | 30 | 1005.0 |
| 20260504173050 | 18 | 252 | 19.3 | 40.2 | 0.00 | 0.00 | 0.00 | 30 | 1005.2 |
| 20260504171548 | 18 | 309 | 24.1 | 37.0 | 0.00 | 0.00 | 0.00 | 28 | 1005.1 |
| 20260504081549 | 5 | 257 | 4.8 | 11.3 | 0.00 | 0.00 | 0.00 | 57 | 1008.5 |
| 20260504044545 | 3 | 250 | 3.2 | 14.5 | 0.00 | 0.00 | 0.00 | 62 | 1008.3 |
| 20260504043055 | 3 | 259 | 6.4 | 14.5 | 0.00 | 0.00 | 0.00 | 61 | 1008.2 |
| 20260504041544 | 3 | 201 | 8.0 | 12.9 | 0.00 | 0.00 | 0.00 | 61 | 1008.1 |
| 20260504040046 | 3 | 234 | 4.8 | 14.5 | 0.00 | 0.00 | 0.00 | 61 | 1008.1 |
| 20260504034549 | 3 | 257 | 4.8 | 12.9 | 0.00 | 0.00 | 0.00 | 60 | 1008.0 |
| 20260504033048 | 5 | 264 | 3.2 | 14.5 | 0.00 | 0.00 | 0.00 | 56 | 1007.9 |
| 20260504031546 | 6 | 242 | 6.4 | 16.1 | 0.00 | 0.00 | 0.00 | 51 | 1007.8 |
| 20260504030047 | 6 | 288 | 4.8 | 12.9 | 0.00 | 0.00 | 0.00 | 51 | 1007.7 |
| 20260504024548 | 6 | 273 | 4.8 | 16.1 | 0.00 | 0.00 | 0.00 | 51 | 1007.7 |
| 20260504023049 | 5 | 284 | 6.4 | 14.5 | 0.00 | 0.00 | 0.00 | 53 | 1007.7 |
| 20260504021547 | 5 | 293 | 3.2 | 8.0 | 0.00 | 0.00 | 0.00 | 56 | 1007.7 |
| 20260504020125 | 5 | 290 | 0.0 | 6.4 | 0.00 | 0.00 | 0.00 | 56 | 1007.7 |
| 20260504014559 | 5 | 242 | 1.6 | 4.8 | 0.00 | 0.05 | 0.00 | 57 | 1007.8 |
| 20260504013055 | 5 | 271 | 1.6 | 6.4 | 0.00 | 0.05 | 0.00 | 53 | 1007.8 |
| 20260504011546 | 5 | 317 | 3.2 | 11.3 | 0.00 | 0.05 | 0.00 | 54 | 1007.6 |
| 20260504010048 | 5 | 263 | 3.2 | 11.3 | 0.00 | 0.05 | 0.00 | 54 | 1007.4 |
| 20260504004618 | 6 | 270 | 6.4 | 14.5 | 0.00 | 0.15 | 0.00 | 50 | 1007.2 |
| 20260504003051 | 6 | 257 | 8.0 | 16.1 | 0.00 | 0.15 | 0.00 | 50 | 1007.0 |
| 20260504001617 | 6 | 273 | 6.4 | 12.9 | 0.00 | 0.15 | 0.00 | 50 | 1006.9 |
| 20260504000049 | 7 | 310 | 6.4 | 16.1 | 0.00 | 0.15 | 0.00 | 47 | 1006.6 |
| 20260503234547 | 7 | 319 | 14.5 | 25.7 | 0.00 | 0.23 | 0.00 | 45 | 1006.3 |
| 20260503233049 | 7 | 284 | 14.5 | 30.6 | 0.00 | 0.23 | 0.00 | 44 | 1006.2 |
| 20260503231541 | 8 | 315 | 19.3 | 33.8 | 0.00 | 0.23 | 0.00 | 41 | 1005.9 |